Location: Azenweiler
(47.8027°N, 9.4096°E)
Time: 22:14:35
(UTC+00:00)

Meteor 1-10 Rocket - Pass Details

Date: 10 December 2025
Orbit: 835 x 908 km, 81.3° (Epoch: 21 January)

Event Time Altitude Azimuth Distance (km) Brightness Sun altitude
Rises 06:02:31 0° 347° (NNW) 3,526 7.1 -9.3°
Reaches altitude 10° 06:04:58 10° 347° (NNW) 2,588 6.4 -8.9°
Maximum altitude 06:10:54 84° 261° (W) 919 4.4 -8.0°
Drops below altitude 10° 06:16:49 10° 174° (S) 2,586 7.2 -7.1°
Sets 06:19:16 0° 173° (S) 3,522 7.9 -6.8°
